GSAT-9

Last updated on Thu Nov 06 2025 00:02:49 GMT+0000 (Coordinated Universal Time)

1 42695U 17024A 25309.05454138 -.00000275 00000+0 00000+0 0 9992 2 42695 0.0239 262.7509 0003042 323.0517 295.7552 1.00272331 31056
UTC large
Height (km)
Speed (km/s)
/
Latitude / Longitude
Inclination (degrees)
Orbital Period (minutes)
Azimuth
Elevation
Range (km)
Doppler Factor

Next 0 passes for location: London (51.5072 / 0.1276)

Sorry there are no passes over London.